Weather reports worldwide

Advertisment
Valencia/Manises, Spain (8284): temperature & dewpoint: 08.12.2019 06:00:00 - 14.12.2019 06:00:00 (CET)Valencia/Manises, Spain (8284): wind speed: 08.12.2019 06:00:00 - 14.12.2019 06:00:00 (CET)Valencia/Manises, Spain (8284): wind direction: 08.12.2019 06:00:00 - 14.12.2019 06:00:00 (CET)Valencia/Manises, Spain (8284): reduced air pressure: 08.12.2019 06:00:00 - 14.12.2019 06:00:00 (CET)Valencia/Manises, Spain (8284): visibility: 08.12.2019 06:00:00 - 14.12.2019 06:00:00 (CET)
Date & Time tt [°C] td [°C] ff [km/h] ff [kn] dd ppp [hPa] vv [km]
14.12.2019 06:00:00 12,9 7,1 11 6 W 1014,6 -
14.12.2019 05:00:00 14,4 7,2 8 4 S 1014,5 -
14.12.2019 04:00:00 14,6 7,4 11 6 SSW 1014,2 30
14.12.2019 03:00:00 16,0 7,2 46 25 WNW 1013,3 -
14.12.2019 02:00:00 16,1 7,3 35 19 W 1014,3 -
14.12.2019 01:00:00 16,1 7,8 24 13 W 1014,6 30
14.12.2019 00:00:00 16,7 7,9 34 18 W 1014,1 -
13.12.2019 23:00:00 16,7 8,1 18 10 W 1013,6 -
13.12.2019 22:00:00 16,7 8,8 29 16 WSW 1012,7 20
13.12.2019 21:00:00 17,3 8,7 44 24 W 1011,7 -
13.12.2019 20:00:00 18,4 8,8 42 23 W 1011,4 -
13.12.2019 19:00:00 18,6 8,5 39 21 W 1011,0 15
13.12.2019 18:00:00 18,9 8,5 29 16 WSW 1010,9 -
13.12.2019 17:00:00 20,1 8,3 29 16 WSW 1010,6 -
13.12.2019 16:00:00 20,2 8,3 29 16 W 1009,8 50
13.12.2019 15:00:00 20,6 7,7 29 16 W 1009,2 -
13.12.2019 14:00:00 20,1 8,1 31 17 W 1008,7 -
13.12.2019 13:00:00 18,8 7,9 44 24 W 1009,2 50
13.12.2019 12:00:00 18,2 8,2 41 22 W 1009,2 -
13.12.2019 11:00:00 18,1 8,6 37 20 W 1009,6 -
13.12.2019 10:00:00 17,6 8,8 31 17 W 1008,4 50
13.12.2019 09:00:00 17,2 9,3 26 14 W 1008,0 -
13.12.2019 08:00:00 16,6 9,8 21 11 W 1007,9 -
13.12.2019 07:00:00 16,3 9,9 24 13 W 1007,4 25
13.12.2019 06:00:00 15,8 9,9 34 18 WSW 1007,2 -
13.12.2019 05:00:00 15,0 9,6 28 15 WSW 1007,9 -
13.12.2019 04:00:00 14,8 9,1 29 16 WSW 1007,8 25
13.12.2019 03:00:00 14,5 8,9 31 17 WSW 1008,3 -
13.12.2019 02:00:00 14,4 8,6 29 16 WSW 1008,5 -
13.12.2019 01:00:00 14,3 8,0 24 13 SW 1009,3 25
13.12.2019 00:00:00 14,4 7,8 37 20 WSW 1009,3 -
12.12.2019 23:00:00 14,2 7,3 28 15 SW 1009,6 -
12.12.2019 22:00:00 13,9 7,0 28 15 WSW 1010,7 25
12.12.2019 21:00:00 13,4 6,3 29 16 W 1011,0 -
12.12.2019 20:00:00 12,7 5,8 26 14 W 1012,1 -
12.12.2019 19:00:00 12,7 5,3 29 16 W 1012,3 13
12.12.2019 18:00:00 12,6 5,0 21 11 W 1013,2 -
12.12.2019 17:00:00 12,9 4,2 26 14 W 1013,9 -
12.12.2019 16:00:00 13,2 4,0 37 20 WSW 1014,8 45
12.12.2019 15:00:00 13,1 3,9 35 19 WSW 1015,6 -
12.12.2019 14:00:00 13,1 3,1 37 20 WSW 1016,5 -
12.12.2019 13:00:00 12,9 3,4 46 25 W 1017,5 45
12.12.2019 12:00:00 11,9 2,4 29 16 WSW 1019,1 -
12.12.2019 11:00:00 11,6 2,6 29 16 W 1019,8 -
12.12.2019 10:00:00 9,1 2,8 28 15 WSW 1020,8 50
12.12.2019 09:00:00 8,4 2,1 28 15 WSW 1020,4 -
12.12.2019 08:00:00 7,8 1,8 34 18 WSW 1020,4 -
12.12.2019 07:00:00 8,2 1,8 29 16 WSW 1020,6 20
12.12.2019 06:00:00 8,8 1,8 29 16 WSW 1020,5 -
12.12.2019 05:00:00 8,4 2,2 26 14 W 1021,0 -
12.12.2019 04:00:00 9,1 2,2 29 16 W 1021,3 20
12.12.2019 03:00:00 9,3 1,7 22 12 W 1021,9 -
12.12.2019 02:00:00 7,9 2,6 11 6 NW 1022,1 -
12.12.2019 01:00:00 8,8 2,4 11 6 W 1022,8 20
12.12.2019 00:00:00 7,5 2,2 11 6 SSW 1023,0 -
11.12.2019 23:00:00 8,2 1,6 11 6 WSW 1022,9 -
11.12.2019 22:00:00 7,2 3,1 13 7 WNW 1022,5 20
11.12.2019 21:00:00 7,9 3,8 9 5 W 1021,9 -
11.12.2019 20:00:00 11,8 2,4 5 3 NW 1021,1 -
11.12.2019 19:00:00 12,2 4,2 8 4 NW 1019,9 50
11.12.2019 18:00:00 15,2 3,9 21 11 NNW 1018,5 -
11.12.2019 17:00:00 17,2 5,9 22 12 W 1016,9 -
11.12.2019 16:00:00 19,0 5,8 29 16 W 1016,0 50
11.12.2019 15:00:00 16,7 3,9 22 12 SW 1015,8 -
11.12.2019 14:00:00 14,9 4,1 21 11 SW 1016,7 -
11.12.2019 13:00:00 15,1 3,2 24 13 WSW 1017,2 50
11.12.2019 12:00:00 15,9 2,5 29 16 WSW 1018,3 -
11.12.2019 11:00:00 15,5 2,7 9 5 WSW 1018,9 -
11.12.2019 10:00:00 12,2 2,8 15 8 W 1019,5 50
11.12.2019 09:00:00 8,0 1,8 15 8 WSW 1019,6 -
11.12.2019 08:00:00 5,2 1,5 5 3 NW 1019,8 -
11.12.2019 07:00:00 6,0 1,7 11 6 WNW 1019,9 20
11.12.2019 06:00:00 7,1 1,8 18 10 W 1020,1 -
11.12.2019 05:00:00 5,3 2,6 9 5 W 1020,8 -
11.12.2019 04:00:00 6,0 3,2 8 4 W 1021,4 15
11.12.2019 03:00:00 7,7 3,7 15 8 W 1021,7 -
11.12.2019 02:00:00 6,5 5,0 9 5 W 1022,0 -
11.12.2019 01:00:00 6,4 4,6 9 5 WNW 1022,5 15
11.12.2019 00:00:00 7,0 5,0 11 6 WNW 1022,7 -
10.12.2019 23:00:00 8,6 5,5 8 4 WNW 1022,9 -
10.12.2019 22:00:00 8,3 5,8 15 8 WSW 1022,8 20
10.12.2019 21:00:00 8,4 5,7 9 5 W 1022,8 -
10.12.2019 20:00:00 9,8 5,8 4 2 W 1022,9 -
10.12.2019 19:00:00 11,5 6,1 8 4 W 1022,7 20
10.12.2019 18:00:00 14,3 5,6 8 4 SW 1022,8 -
10.12.2019 17:00:00 17,3 5,5 11 6 SW 1022,8 -
10.12.2019 16:00:00 18,6 4,7 15 8 SSW 1022,7 50
10.12.2019 15:00:00 19,6 3,8 9 5 S 1023,0 -
10.12.2019 14:00:00 18,6 3,5 11 6 SW 1023,8 -
10.12.2019 13:00:00 16,9 2,4 9 5 SW 1025,0 50
10.12.2019 12:00:00 15,9 2,4 8 4 SSW 1026,2 -
10.12.2019 11:00:00 14,1 2,5 8 4 S 1026,6 -
10.12.2019 10:00:00 11,9 2,8 9 5 SSW 1026,3 50
10.12.2019 09:00:00 8,2 2,1 13 7 WSW 1026,0 -
10.12.2019 08:00:00 8,0 1,8 15 8 SW 1025,7 -
10.12.2019 07:00:00 8,3 1,9 11 6 SSE 1025,8 13
10.12.2019 06:00:00 7,7 2,2 18 10 WNW 1024,8 -
10.12.2019 05:00:00 6,5 2,6 5 3 SW 1025,5 -
10.12.2019 04:00:00 8,2 2,6 9 5 W 1026,0 13
10.12.2019 03:00:00 8,7 2,9 11 6 S 1026,2 -
10.12.2019 02:00:00 10,7 2,8 13 7 W 1025,9 -
10.12.2019 01:00:00 11,2 3,6 21 11 WNW 1026,0 13
10.12.2019 00:00:00 9,7 4,3 11 6 S 1026,7 -
09.12.2019 23:00:00 8,9 4,9 16 9 WSW 1026,9 -
09.12.2019 22:00:00 10,0 4,9 9 5 NW 1026,7 13
09.12.2019 21:00:00 10,2 5,2 9 5 WSW 1026,7 -
09.12.2019 20:00:00 11,7 5,4 9 5 SW 1026,2 -
09.12.2019 19:00:00 12,8 7,2 8 4 W 1025,4 30
09.12.2019 18:00:00 15,4 6,9 4 2 ENE 1024,5 -
09.12.2019 17:00:00 18,0 7,1 8 4 S 1023,6 -
09.12.2019 16:00:00 19,9 6,2 5 3 SSW 1023,2 50
09.12.2019 15:00:00 19,3 6,8 9 5 S 1022,9 -
09.12.2019 14:00:00 17,7 7,1 28 15 WSW 1023,5 -
09.12.2019 13:00:00 16,7 6,9 39 21 WSW 1023,8 55
09.12.2019 12:00:00 16,4 5,9 28 15 W 1024,6 -
09.12.2019 11:00:00 15,4 5,4 24 13 WSW 1024,9 -
09.12.2019 10:00:00 13,0 7,0 16 9 WSW 1025,2 50
09.12.2019 09:00:00 9,5 6,4 15 8 WSW 1025,1 -
09.12.2019 08:00:00 8,4 6,2 15 8 W 1024,9 -
09.12.2019 07:00:00 10,0 7,1 22 12 WSW 1024,3 15
09.12.2019 06:00:00 10,4 7,5 15 8 SW 1023,6 -
09.12.2019 05:00:00 11,1 8,0 16 9 WSW 1023,3 -
09.12.2019 04:00:00 10,3 8,1 15 8 W 1023,3 15
09.12.2019 03:00:00 11,8 8,6 16 9 W 1022,3 -
09.12.2019 02:00:00 13,0 8,7 22 12 WSW 1022,0 -
09.12.2019 01:00:00 13,1 9,7 16 9 W 1022,6 15
09.12.2019 00:00:00 12,0 9,0 13 7 W 1022,7 -
08.12.2019 23:00:00 12,7 8,0 15 8 SW 1022,0 -
08.12.2019 22:00:00 12,0 8,7 15 8 WSW 1022,1 15
08.12.2019 21:00:00 12,0 8,7 13 7 WSW 1021,7 -
08.12.2019 20:00:00 12,9 8,8 5 3 WNW 1021,8 -
08.12.2019 19:00:00 12,4 9,2 8 4 W 1021,3 13
08.12.2019 18:00:00 14,1 9,3 16 9 WSW 1020,8 -
08.12.2019 17:00:00 15,9 9,4 21 11 WSW 1020,5 -
08.12.2019 16:00:00 17,0 8,7 21 11 WSW 1020,5 50
08.12.2019 15:00:00 17,1 8,2 21 11 SW 1020,7 -
08.12.2019 14:00:00 17,3 8,1 16 9 SW 1021,5 -
08.12.2019 13:00:00 15,8 8,1 16 9 SW 1022,7 50
08.12.2019 12:00:00 15,0 7,6 15 8 SW 1024,0 -
08.12.2019 11:00:00 12,8 7,5 15 8 WSW 1024,6 -
08.12.2019 10:00:00 10,1 7,3 13 7 W 1024,6 50
08.12.2019 09:00:00 7,3 6,4 9 5 W 1024,3 -
08.12.2019 08:00:00 6,3 5,7 11 6 W 1023,9 -
08.12.2019 07:00:00 6,3 5,9 11 6 W 1023,5 20
08.12.2019 06:00:00 6,0 5,9 11 6 W 1023,3 -

tt = temperature
td = dewpoint
ff = wind speed
dd = wind direction
ppp = reduced air pressure
vv = visibility

Next stations